Home   Weather   Muttenz   Past weeks

Flag for Switzerland Past Weather in Muttenz, Basel-Land, Switzerland — Yesterday and Last 2 Weeks

52 °F

Partly cloudy.

Feels Like: 51 °F
Forecast: 42 / 56 °F
Wind: 3 mph from Northwest

Location: Bale-Mulhouse

Current Time: Oct 26, 2016 at 9:07:55 PM

Latest Report: Oct 26, 2016 at 8:30 PM

Visibility: 4 mi

Pressure: 30.39 "Hg

Humidity: 94%

Dew Point: 50 °F

Location of MuttenzLocation

Past Weather in Muttenz — Graph


Muttenz Temperature Yesterday

Maximum temperature yesterday: 59 °F (at 11:00 AM)
Minimum temperature yesterday: 54 °F (at 9:30 PM)
Average temperature yesterday: 56 °F

High & Low Weather Summary for the Past Weeks

High66 °F (Oct 15, 5:30 PM)100% (Oct 12, 2:00 AM)30.39 "Hg (Oct 12, 2:00 AM)
Low30 °F (Oct 13, 2:00 AM)51% (Oct 12, 5:00 PM)29.62 "Hg (Oct 14, 5:30 PM)
Average49 °F86%30.03 "Hg
* Reported Oct 11 8:00 PM — Oct 26 8:00 PM, Muttenz, Weather by CustomWeather, © 2016

Note: Actual official high and low records may vary slightly from our data, if they occured in-between our weather recording intervals... More about our weather records


Muttenz Weather History for the Previous 24 Hours

Scroll right to see more
Time TempWeatherWind HumidityBarometerVisibility
8:00 PM
Wed, Oct 26
54 °FPassing clouds.3 mph88%30.39 "Hg4 mi
7:30 PM54 °FPassing clouds.3 mph88%30.36 "Hg5 mi
7:00 PM54 °FMostly cloudy.3 mph94%30.36 "Hg4 mi
6:30 PM54 °FOvercast.3 mph94%30.36 "Hg4 mi
6:00 PM54 °FMore clouds than sun.2 mph94%30.36 "Hg4 mi
5:30 PM54 °FFog.3 mph94%30.33 "Hg3 mi
5:00 PM54 °FFog.3 mph94%30.33 "Hg3 mi
4:30 PM54 °FFog.3 mph94%30.33 "Hg3 mi
4:00 PM54 °FFog.6 mph88%30.33 "Hg3 mi
3:30 PM54 °FFog.3 mph94%30.33 "Hg3 mi
3:00 PM54 °FFog.3 mph94%30.33 "Hg3 mi
2:30 PM52 °FFog.5 mph100%30.33 "Hg2 mi
2:00 PM52 °FFog.7 mph100%30.33 "Hg3 mi
1:30 PM52 °FFog.7 mph94%30.33 "Hg3 mi
1:00 PM52 °FFog.7 mph100%30.33 "Hg3 mi
12:30 PM52 °FDrizzle. Fog.6 mph94%30.33 "Hg3 mi
12:00 PM52 °FDrizzle. Fog.6 mph94%30.33 "Hg3 mi
11:30 AM52 °FFog.6 mph94%30.33 "Hg2 mi
11:00 AM50 °FLight rain. Fog.5 mph100%30.33 "Hg2 mi
10:30 AM50 °FLight rain. Fog.5 mph100%30.33 "Hg1 mi
10:00 AM50 °FRain. Fog.5 mph100%30.33 "Hg2 mi
9:30 AM50 °FLight rain. Fog.3 mph100%30.30 "Hg2 mi
9:00 AM50 °FLight rain. Fog.6 mph100%30.30 "Hg1 mi
8:30 AM50 °FRain. Fog.5 mph100%30.30 "Hg1 mi
8:00 AM50 °FDrizzle. Fog.2 mph100%30.27 "Hg2 mi
7:30 AM50 °FLight rain. Fog.6 mph100%30.27 "Hg2 mi
7:00 AM50 °FLight rain. Fog.7 mph100%30.27 "Hg2 mi
6:30 AM50 °FDrizzle. Fog.2 mph100%30.27 "Hg2 mi
6:00 AM50 °FDrizzle. Fog.5 mph100%30.27 "Hg2 mi
5:30 AM50 °FLight rain. Passing clouds.6 mph100%30.27 "Hg2 mi
5:00 AM52 °FLight rain. Passing clouds.6 mph94%30.27 "Hg4 mi
4:30 AM52 °FLight rain. Passing clouds.5 mph94%30.27 "Hg4 mi
4:00 AM52 °FMostly cloudy.7 mph94%30.27 "Hg4 mi
3:30 AM52 °FMostly cloudy.6 mph94%30.27 "Hg4 mi
3:00 AM52 °FMostly cloudy.8 mph94%30.27 "Hg4 mi
2:30 AM52 °FMostly cloudy.8 mph94%30.27 "Hg5 mi
2:00 AM52 °FMostly cloudy.5 mph94%30.27 "HgN/A
1:30 AM52 °FOvercast.6 mph94%30.27 "HgN/A
1:00 AM54 °FMostly cloudy.5 mph88%30.27 "HgN/A
12:30 AM54 °FOvercast.6 mph88%30.27 "HgN/A
12:00 AM54 °FPassing clouds.5 mph88%30.27 "HgN/A
11:30 PM
Tue, Oct 25
54 °FPassing clouds.6 mph88%30.27 "HgN/A
11:00 PM54 °FPartly cloudy.5 mph88%30.27 "HgN/A
10:30 PM54 °FPassing clouds.7 mph88%30.24 "HgN/A
10:00 PM54 °FPassing clouds.7 mph94%30.27 "HgN/A
9:30 PM54 °FPassing clouds.7 mph88%30.24 "HgN/A
9:00 PM55 °FPassing clouds.8 mph82%30.24 "HgN/A
Weather by CustomWeather, © 2016

See weather overviewHow to use our weather pages